Wind_Speed
14 13 12 12 12 11 10 11 11 10 10 10 9 9 9 7 7 7 6 6 5 5 5 6 6 6 6 6 7 6 6 6 6 6 7 8 9 10 10 10 11 11 11 11 10 10 10 9 8
13 13 13 13 13 12 12 10 10 10 10 10 10 9 9 8 8 7 6 6 5 4 4 6 7 7 7 7 7 7 6 6 6 6 7 8 9 9 10 11 12 12 11 11 10 10 10 8 8
14 13 13 14 14 14 14 12 11 11 10 10 10 9 8 8 8 7 6 5 5 5 5 5 7 7 8 8 7 7 6 6 6 6 7 8 9 9 10 11 12 12 10 10 9 10 9 8 8
14 14 14 14 15 15 15 14 13 11 11 10 10 9 8 8 8 8 8 6 6 6 6 6 7 7 8 8 8 7 7 7 8 8 8 9 9 9 9 10 11 11 10 10 10 9 9 8 8
13 14 15 14 15 15 15 14 13 13 12 11 11 10 9 9 9 9 9 9 8 7 7 8 8 8 8 8 8 8 8 9 9 9 9 10 10 10 10 10 11 10 10 10 10 9 9 9 8
12 13 14 14 14 14 14 14 14 14 13 12 11 10 10 9 9 10 10 10 9 8 9 8 8 8 7 8 8 8 9 10 10 10 10 10 10 11 11 11 11 10 10 10 10 10 10 9 7
12 12 13 13 14 14 14 14 14 14 14 13 12 11 11 9 9 10 10 10 10 9 9 9 9 9 8 8 8 9 10 10 11 11 10 10 10 11 11 11 10 10 9 9 9 9 8 8 7
11 11 12 13 14 15 14 15 15 15 14 14 13 12 11 10 9 9 10 10 10 10 9 9 10 10 10 10 9 10 10 10 11 11 11 10 11 11 10 10 10 9 9 8 9 8 7 7 6
10 11 12 12 13 14 14 15 15 15 14 14 13 12 11 10 10 10 10 10 10 10 9 9 9 9 10 11 10 10 11 11 11 12 11 10 11 11 10 9 10 9 8 8 8 8 7 6 5
9 10 11 12 12 13 13 13 14 14 14 14 14 13 11 10 10 11 10 10 10 10 10 10 10 10 10 10 10 10 10 10 11 12 11 11 10 10 9 9 9 8 8 7 7 6 5 5 4
8 9 10 11 12 12 13 12 13 13 13 14 13 13 12 11 10 11 10 10 10 10 10 10 10 10 9 9 9 10 10 10 11 11 11 11 10 10 9 9 8 8 7 7 7 6 5 4 3
6 7 9 10 11 12 12 11 11 11 12 13 13 13 12 11 10 10 10 10 9 10 10 10 10 9 9 9 9 9 10 10 10 10 11 11 10 9 9 9 8 7 7 6 6 5 4 3 2
6 6 7 9 10 10 10 10 10 10 11 11 11 12 11 11 10 9 9 9 9 9 9 10 10 9 9 9 9 9 9 10 10 11 10 10 10 9 8 8 7 7 6 5 5 4 3 3 2
4 5 6 8 9 9 10 9 8 9 10 10 10 11 11 11 10 10 9 9 9 9 9 9 9 9 9 8 8 8 8 8 9 9 9 9 8 7 7 7 6 6 5 4 3 2 2 2 2
4 4 4 5 6 7 8 9 8 8 9 9 9 10 11 11 11 10 9 10 10 10 9 9 9 9 9 8 7 7 7 7 8 8 8 8 8 7 6 6 6 5 4 3 3 3 2 2 2
4 4 4 4 4 5 6 7 7 8 8 8 8 9 10 10 11 10 10 10 10 10 9 9 9 8 8 7 7 6 6 6 7 7 7 7 6 6 5 5 4 4 3 3 3 3 3 2 2
4 3 3 3 3 4 5 6 6 6 6 7 7 8 9 9 9 10 10 9 8 9 9 9 8 8 7 7 6 6 6 6 6 6 6 6 5 5 4 4 4 3 2 2 1 1 1 2 2
2 2 2 2 1 2 4 5 5 5 6 6 6 7 8 8 9 9 9 9 8 8 8 8 8 7 7 7 7 7 7 7 6 5 5 4 4 4 3 3 3 2 1 1 1 1 1 1 2
4 2 1 2 3 2 2 2 3 4 4 4 5 6 7 8 8 8 8 8 8 8 8 8 8 7 7 7 6 6 6 6 5 5 4 3 3 3 2 2 2 2 2 1 1 0 1 2 2
5 4 3 3 4 4 3 2 2 3 2 2 3 4 5 6 7 7 7 7 7 7 7 7 7 7 7 7 6 5 5 5 4 4 3 2 2 2 2 2 2 2 2 1 1 1 2 2 2
7 6 4 4 5 5 4 3 3 3 2 2 2 2 3 4 5 6 6 6 6 6 6 6 6 7 7 6 5 4 4 3 3 3 2 2 1 1 1 1 1 2 2 2 2 2 2 3 3
10 9 8 8 7 6 6 5 4 3 2 1 1 1 2 2 3 4 4 5 5 5 4 4 4 5 5 5 4 4 3 2 2 2 1 1 1 0 0 0 1 2 3 3 3 3 4 4 4
12 12 11 11 10 9 8 6 5 4 3 2 2 2 0 0 1 1 2 3 3 3 3 3 3 3 3 3 3 2 2 1 1 1 1 0 1 0 1 1 2 3 3 4 4 5 5 5 6
14 15 14 13 12 11 9 8 6 6 5 4 3 3 3 2 1 1 0 1 1 1 1 1 1 1 2 2 1 1 0 0 1 1 1 2 2 1 2 3 3 4 4 5 6 6 6 7 7
17 16 15 15 14 11 10 10 8 7 6 5 5 5 5 4 3 3 2 1 2 2 2 2 2 1 1 1 2 2 2 2 2 3 3 3 3 3 3 4 5 5 6 6 6 7 8 8 8
20 18 17 15 14 12 12 11 8 8 8 8 8 8 8 7 5 4 4 4 4 4 4 4 3 3 2 2 2 3 3 3 3 4 4 5 4 5 5 6 6 6 7 7 7 8 9 9 10
22 20 18 18 16 15 14 12 9 9 9 10 10 10 10 9 7 6 6 6 6 6 6 6 5 6 5 4 4 4 5 5 5 5 6 6 7 7 6 7 7 8 8 8 9 9 10 11 12
24 22 21 21 19 19 17 15 13 12 11 10 12 12 12 11 10 9 8 8 7 8 8 8 7 7 7 6 6 6 6 6 6 7 7 7 8 8 9 9 9 10 10 10 11 11 12 13 14
26 24 24 23 23 21 19 17 15 14 13 12 13 14 13 13 13 12 11 10 10 9 9 9 9 8 8 7 7 7 7 7 7 8 8 9 10 10 11 11 12 12 12 13 13 14 15 16 16
28 27 26 25 24 23 23 19 17 17 16 15 14 14 14 14 15 14 13 13 12 11 10 9 9 9 9 10 10 10 9 9 10 10 11 11 12 13 13 14 14 14 14 14 15 16 17 17 18
Wind_Direction
81 80 74 70 72 72 72 73 69 65 61 59 56 61 61 58 59 59 64 70 82 88 91 96 93 99 98 95 92 92 95 97 101 101 99 100 104 107 109 112 116 121 123 127 130 131 134 136 139
78 77 73 71 75 73 69 69 68 66 62 60 59 62 60 57 61 62 62 74 94 103 99 96 98 101 96 96 93 90 89 96 102 107 106 106 108 111 116 118 120 124 122 123 125 123 124 125 130
80 79 78 75 73 71 68 67 67 64 60 58 57 58 57 58 61 63 60 75 103 110 111 103 97 99 93 96 96 96 96 101 108 114 114 113 112 114 121 119 119 119 116 118 117 117 120 124 125
79 81 81 77 72 71 69 67 65 62 59 57 55 54 58 61 64 66 69 89 114 115 104 101 97 96 94 91 90 90 90 100 106 111 118 121 120 121 120 119 121 122 118 116 115 115 118 119 121
80 81 82 78 73 70 68 66 60 55 56 55 53 54 61 67 70 70 75 90 105 107 99 94 89 92 95 93 90 88 89 96 103 112 117 121 123 123 121 122 120 122 121 117 114 114 118 119 120
82 82 82 77 73 70 67 63 59 53 53 51 53 58 63 70 76 77 79 87 95 99 99 94 89 92 92 93 89 88 93 97 97 109 117 121 120 121 123 120 120 120 121 118 120 119 121 122 120
83 83 81 77 75 71 66 62 60 57 54 52 55 59 65 72 80 82 84 87 91 95 97 95 88 89 93 93 88 88 94 98 99 106 112 116 120 120 120 120 119 121 124 125 125 124 126 124 121
85 82 79 76 73 69 66 63 60 60 56 55 59 62 72 79 83 86 83 87 89 90 93 93 92 90 92 90 88 89 96 100 102 105 110 116 118 119 118 120 120 121 125 126 125 127 123 116 115
90 85 77 74 73 70 68 65 60 60 60 59 62 63 72 80 82 88 86 87 88 90 92 94 97 96 94 89 86 90 96 103 106 106 106 110 116 118 118 117 120 122 126 123 121 122 120 112 107
96 85 75 71 73 72 67 65 63 61 61 61 64 64 71 78 82 85 87 87 88 90 91 93 93 94 94 89 85 89 98 103 106 105 104 109 113 119 120 118 118 121 122 118 118 117 117 111 101
94 87 79 73 74 70 65 65 64 63 61 61 64 66 69 76 81 82 85 87 87 89 90 90 91 90 89 87 85 87 91 103 108 103 102 105 111 118 121 124 127 125 119 114 114 109 108 101 89
93 91 88 84 79 73 68 68 67 64 61 61 62 65 68 72 77 77 80 82 86 92 93 91 88 88 89 88 85 85 89 99 108 104 102 105 110 116 122 123 121 117 115 114 116 115 110 95 82
101 97 93 89 85 77 74 73 71 68 64 64 64 66 67 66 69 74 79 82 87 92 96 91 88 89 92 90 89 90 91 100 109 110 107 109 109 111 112 108 110 112 111 111 109 110 106 92 71
116 103 99 91 87 80 75 72 72 71 68 68 67 68 69 69 69 73 81 86 87 91 94 92 89 88 89 91 92 93 92 96 103 106 106 108 107 103 106 109 115 109 109 105 102 103 105 91 74
127 113 99 91 88 81 75 72 67 72 71 69 69 70 70 69 70 72 80 87 88 90 93 93 91 89 87 87 90 91 94 98 100 106 104 103 102 102 102 109 114 110 111 104 99 83 76 69 37
143 122 101 90 86 85 80 77 67 71 70 69 72 74 73 70 70 75 82 84 84 88 91 92 90 90 89 86 86 90 100 105 102 107 106 99 97 96 92 90 99 100 105 101 85 75 56 40 29
153 129 116 96 88 87 81 83 78 73 69 69 72 75 74 73 69 72 78 82 83 88 91 90 90 92 90 86 86 88 96 102 102 109 108 98 93 93 87 80 84 94 107 111 100 85 36 33 21
172 136 147 132 123 117 91 96 91 90 84 78 79 83 80 77 74 72 76 81 84 89 92 90 91 93 91 91 91 86 91 96 98 106 109 104 90 80 73 69 64 59 73 107 130 80 33 2 353
181 178 179 165 195 184 130 122 122 118 94 85 86 85 84 78 77 76 74 78 82 90 93 89 91 95 94 95 96 94 94 97 101 104 108 108 98 78 63 33 19 30 26 44 65 22 342 333 333
200 202 207 212 218 217 208 189 163 146 122 107 95 85 83 78 79 79 75 77 85 89 94 95 95 97 99 100 100 100 100 98 92 87 89 95 94 82 55 21 5 5 5 351 330 315 311 313 314
218 221 232 229 224 223 229 212 183 173 162 141 114 93 85 76 79 83 79 79 80 86 95 93 100 101 101 102 104 101 100 102 94 80 77 78 87 54 41 35 354 337 332 336 325 309 308 315 312
227 233 235 235 230 231 240 235 217 216 201 187 175 124 88 77 75 84 84 78 77 81 93 95 99 107 107 108 105 96 93 92 87 83 77 86 33 32 176 148 315 304 308 309 315 317 312 314 320
229 234 237 238 239 237 238 242 240 228 219 223 234 235 238 18 41 70 83 78 73 71 79 84 91 113 123 118 110 92 83 82 70 51 44 6 340 308 254 260 281 292 297 299 303 306 310 312 311
232 238 241 241 245 244 241 243 233 232 230 227 233 240 252 271 252 229 138 82 51 41 36 39 49 111 157 166 181 170 75 307 289 305 317 319 310 306 287 273 281 291 294 295 298 301 307 309 311
235 241 244 245 246 246 244 246 239 232 237 244 243 239 244 249 245 240 249 259 273 278 288 308 290 223 201 225 245 247 264 284 280 286 286 293 288 292 295 287 287 283 282 288 296 304 305 304 306
235 241 247 249 248 249 249 251 242 233 241 249 252 248 247 252 252 254 259 267 265 269 266 269 269 245 234 247 261 269 272 277 281 283 287 289 291 296 301 300 293 290 288 289 293 295 299 299 302
235 239 244 246 248 250 249 252 241 243 252 248 249 251 252 251 254 258 261 265 264 267 268 264 265 253 250 259 269 273 279 280 278 279 285 290 292 293 293 292 293 290 290 286 286 289 293 296 298
235 237 238 242 248 251 253 255 256 255 258 254 247 248 252 253 255 261 267 268 267 271 273 272 262 262 254 259 273 285 281 282 275 275 281 289 292 292 290 289 289 290 289 285 283 288 292 294 293
233 236 240 244 250 255 257 258 261 261 259 257 252 248 250 255 258 266 269 270 270 271 274 269 268 269 265 266 273 282 284 282 274 276 281 284 287 290 288 285 287 291 290 285 283 288 291 293 295
235 237 240 244 251 257 260 260 259 259 260 257 253 252 252 256 259 263 266 264 267 268 273 274 272 275 276 274 274 276 276 275 275 275 279 279 282 287 289 287 285 288 289 286 284 289 292 292 295
Height
5873 5873 5873 5873 5873 5871 5870 5870 5869 5869 5868 5868 5867 5867 5867 5867 5867 5869 5867 5865 5866 5866 5866 5865 5865 5865 5865 5865 5865 5866 5866 5866 5867 5867 5868 5868 5868 5868 5869 5870 5870 5871 5872 5873 5875 5876 5878 5879 5881
5875 5875 5876 5875 5873 5872 5872 5871 5870 5870 5869 5869 5868 5868 5868 5867 5867 5866 5865 5865 5865 5866 5866 5867 5866 5866 5866 5866 5866 5866 5866 5867 5867 5868 5869 5869 5870 5870 5871 5871 5872 5872 5874 5875 5877 5878 5879 5881 5882
5877 5877 5877 5876 5874 5874 5873 5872 5871 5871 5870 5870 5870 5869 5869 5868 5867 5866 5864 5863 5865 5866 5867 5868 5868 5867 5867 5867 5867 5867 5867 5867 5867 5868 5869 5870 5871 5872 5873 5873 5874 5875 5876 5877 5879 5880 5881 5882 5884
5880 5880 5879 5878 5876 5876 5874 5873 5873 5872 5872 5871 5871 5870 5869 5869 5868 5866 5863 5862 5864 5866 5868 5869 5869 5868 5868 5868 5868 5867 5867 5867 5867 5868 5869 5871 5872 5873 5874 5875 5876 5877 5878 5879 5880 5881 5883 5884 5885
5882 5881 5880 5879 5878 5877 5876 5875 5874 5873 5873 5872 5872 5871 5870 5870 5869 5867 5865 5864 5866 5868 5869 5870 5870 5869 5869 5869 5868 5868 5868 5868 5868 5868 5870 5872 5873 5874 5875 5876 5878 5879 5880 5881 5882 5883 5884 5885 5887
5884 5883 5882 5880 5880 5879 5878 5877 5875 5875 5874 5873 5873 5872 5871 5871 5871 5870 5868 5868 5869 5870 5871 5871 5871 5871 5870 5870 5870 5869 5869 5868 5868 5868 5871 5872 5873 5875 5876 5878 5879 5880 5882 5883 5884 5885 5886 5887 5888
5885 5884 5883 5882 5881 5881 5880 5878 5877 5877 5876 5875 5874 5873 5873 5873 5873 5872 5872 5872 5872 5872 5873 5873 5873 5872 5872 5872 5871 5871 5870 5870 5870 5870 5872 5873 5875 5877 5878 5880 5881 5882 5883 5884 5885 5886 5887 5888 5889
5886 5886 5884 5884 5883 5883 5882 5881 5880 5879 5878 5877 5876 5875 5875 5875 5875 5875 5874 5874 5874 5874 5874 5874 5875 5874 5874 5873 5873 5872 5871 5872 5872 5872 5874 5875 5877 5879 5880 5881 5882 5883 5884 5885 5886 5887 5888 5889 5890
5888 5889 5886 5886 5885 5884 5884 5883 5882 5881 5880 5879 5878 5878 5878 5877 5877 5877 5877 5877 5877 5876 5876 5876 5876 5876 5876 5876 5875 5875 5875 5874 5874 5875 5876 5878 5879 5880 5882 5883 5884 5885 5886 5887 5888 5889 5890 5891 5891
5890 5889 5888 5888 5887 5886 5886 5885 5884 5884 5883 5882 5881 5880 5879 5879 5879 5879 5879 5879 5878 5878 5878 5878 5878 5878 5878 5878 5878 5877 5878 5877 5877 5878 5880 5881 5881 5882 5883 5884 5885 5886 5887 5888 5889 5890 5891 5891 5892
5891 5890 5890 5889 5889 5888 5888 5887 5887 5886 5885 5884 5883 5882 5882 5882 5881 5881 5881 5880 5880 5880 5880 5880 5880 5880 5880 5880 5880 5880 5880 5880 5881 5881 5882 5883 5883 5884 5885 5886 5887 5888 5889 5889 5890 5891 5892 5892 5893
5892 5892 5891 5891 5890 5890 5889 5889 5889 5888 5887 5886 5885 5884 5884 5884 5883 5883 5882 5882 5882 5882 5882 5882 5882 5882 5882 5882 5882 5882 5882 5882 5883 5883 5884 5885 5885 5886 5887 5887 5888 5889 5890 5890 5891 5892 5892 5893 5893
5894 5893 5893 5892 5892 5892 5891 5891 5891 5890 5889 5888 5887 5887 5886 5885 5885 5884 5884 5883 5883 5883 5884 5884 5884 5884 5884 5884 5884 5884 5885 5885 5885 5885 5886 5886 5886 5887 5888 5889 5890 5890 5891 5892 5892 5893 5893 5893 5893
5895 5895 5894 5894 5893 5893 5893 5893 5892 5891 5890 5890 5889 5889 5888 5887 5887 5886 5885 5885 5885 5884 5885 5885 5885 5885 5885 5885 5886 5886 5886 5887 5887 5887 5888 5888 5889 5889 5889 5890 5891 5891 5892 5892 5893 5893 5893 5893 5894
5896 5896 5896 5895 5894 5894 5894 5894 5894 5893 5892 5892 5891 5891 5890 5889 5888 5888 5887 5887 5886 5886 5886 5886 5886 5887 5887 5887 5887 5888 5888 5888 5888 5889 5889 5890 5890 5891 5891 5891 5892 5892 5893 5893 5893 5894 5894 5894 5894
5896 5897 5896 5896 5895 5895 5897 5896 5895 5894 5894 5893 5893 5892 5892 5891 5890 5889 5889 5888 5888 5887 5887 5887 5887 5888 5888 5888 5889 5889 5889 5890 5890 5890 5891 5891 5891 5892 5892 5892 5893 5893 5893 5893 5894 5894 5894 5894 5894
5896 5897 5897 5897 5896 5896 5896 5896 5897 5896 5896 5895 5894 5894 5893 5892 5892 5891 5890 5890 5889 5889 5889 5889 5889 5889 5890 5890 5890 5890 5890 5891 5891 5891 5892 5892 5893 5893 5893 5893 5893 5893 5894 5894 5894 5894 5894 5894 5894
5897 5897 5897 5897 5897 5896 5896 5897 5897 5897 5897 5897 5896 5895 5895 5894 5893 5893 5892 5892 5891 5891 5890 5890 5890 5891 5891 5891 5891 5892 5892 5892 5892 5893 5893 5893 5893 5893 5894 5894 5894 5894 5894 5894 5894 5894 5894 5894 5894
5896 5897 5897 5897 5897 5897 5896 5897 5898 5898 5898 5898 5897 5896 5896 5895 5895 5894 5894 5893 5893 5892 5892 5892 5892 5892 5892 5892 5893 5893 5893 5893 5894 5894 5894 5894 5894 5894 5894 5894 5894 5894 5894 5894 5894 5894 5894 5894 5893
5895 5896 5897 5898 5897 5897 5897 5897 5898 5898 5898 5898 5898 5897 5896 5896 5896 5895 5895 5894 5894 5894 5894 5894 5893 5893 5893 5894 5894 5894 5894 5894 5894 5894 5895 5895 5894 5894 5894 5894 5894 5894 5894 5894 5894 5894 5894 5893 5893
5894 5895 5896 5897 5896 5896 5897 5897 5898 5898 5899 5899 5899 5898 5897 5897 5896 5896 5896 5895 5895 5895 5895 5895 5895 5894 5895 5895 5895 5895 5895 5895 5895 5895 5895 5895 5895 5894 5894 5894 5894 5894 5894 5894 5894 5893 5893 5893 5892
5893 5894 5895 5895 5895 5896 5897 5897 5898 5898 5899 5899 5899 5899 5898 5897 5897 5896 5896 5896 5896 5896 5896 5896 5895 5895 5895 5895 5895 5896 5896 5896 5895 5895 5895 5895 5894 5894 5894 5894 5894 5894 5894 5893 5893 5893 5892 5892 5892
5891 5892 5892 5893 5894 5894 5895 5895 5897 5897 5898 5898 5899 5898 5898 5897 5897 5897 5896 5896 5896 5896 5896 5896 5896 5896 5896 5896 5896 5896 5896 5895 5895 5895 5895 5894 5894 5894 5894 5893 5893 5893 5893 5893 5892 5892 5891 5891 5890
5888 5890 5890 5891 5892 5893 5894 5894 5895 5896 5896 5897 5897 5897 5897 5897 5897 5897 5896 5896 5896 5896 5896 5896 5896 5896 5896 5896 5896 5895 5895 5895 5895 5895 5894 5894 5893 5893 5893 5893 5893 5892 5892 5892 5891 5891 5890 5890 5889
5886 5888 5888 5888 5889 5891 5892 5892 5894 5894 5895 5895 5896 5896 5896 5896 5896 5896 5896 5896 5896 5895 5895 5895 5895 5895 5895 5895 5895 5895 5895 5895 5895 5894 5894 5893 5893 5893 5892 5892 5891 5891 5891 5890 5890 5889 5889 5888 5888
5882 5884 5886 5886 5887 5888 5889 5889 5893 5893 5892 5893 5893 5894 5894 5895 5895 5895 5895 5895 5895 5894 5894 5893 5893 5894 5894 5894 5894 5894 5894 5894 5894 5893 5893 5892 5892 5891 5891 5890 5890 5889 5889 5889 5888 5887 5887 5886 5885
5878 5880 5882 5883 5884 5885 5886 5888 5890 5890 5890 5890 5891 5892 5893 5893 5893 5893 5893 5893 5893 5893 5892 5892 5892 5892 5892 5893 5892 5892 5892 5892 5892 5892 5892 5891 5891 5890 5889 5889 5888 5887 5887 5886 5886 5885 5885 5884 5883
5875 5876 5878 5879 5880 5881 5883 5884 5886 5887 5888 5888 5889 5890 5890 5891 5891 5891 5892 5892 5891 5891 5891 5890 5890 5890 5890 5891 5891 5891 5891 5890 5890 5890 5890 5889 5889 5888 5887 5887 5886 5885 5884 5883 5883 5882 5882 5881 5880
5870 5872 5873 5875 5877 5878 5879 5883 5883 5884 5885 5885 5886 5887 5888 5888 5889 5889 5889 5889 5889 5889 5889 5888 5888 5888 5888 5889 5889 5889 5888 5888 5888 5887 5887 5887 5886 5886 5885 5884 5883 5882 5881 5880 5879 5879 5878 5877 5876
5864 5866 5869 5871 5872 5873 5874 5880 5879 5880 5881 5882 5883 5884 5884 5885 5885 5886 5886 5886 5886 5886 5886 5886 5886 5886 5886 5886 5886 5886 5885 5885 5885 5884 5884 5884 5883 5882 5881 5881 5880 5879 5878 5877 5876 5875 5874 5873 5872